User: anonymous
Location: Unspecified
(0.0000°N, 0.0000°E)
Time: 23:15:27
(UTC+00:00)
Language:

N. Korean satellite - Orbit

View from above orbital plane
View from above orbital plane
View from above satellite
View from above satellite

Ground track
Ground track

The orbit data is extracted from the following two-line orbital elements,

1 39026U 12072A   14210.73231714  .00003303  00000-0  17690-3 0  1119
2 39026 097.3244 248.7940 0050615 280.6567 078.8968 15.14602235 89817
Epoch (UTC): 29 July 2014 17:34:32
Eccentricity: 0.0050615
inclination: 97.3244°
perigee height: 487 km
apogee height: 557 km
right ascension of ascending node: 248.7940°
argument of perigee: 280.6567°
revolutions per day: 15.14602235
mean anomaly at epoch: 78.8968°
orbit number at epoch: 8981

The dashed part of the orbit path shows where the satellite is in the earth's shadow,  

DLR